RH
37 35 33 31 29 35 39 38 36 38 43 41 39 38 35 34 31 27 26 24 23 25 24 22 22 22 22 21 19 14 10 9 10 8 6 6 6 4 4 5 6 6 5 3 2 3 4
37 30 29 24 33 49 48 48 47 44 44 43 42 40 39 38 36 32 28 26 27 26 24 25 24 23 21 20 15 11 9 10 8 7 6 5 4 4 4 6 6 5 3 3 6 9 13
38 31 21 20 42 51 54 54 54 52 48 47 45 42 41 38 37 33 28 28 27 27 27 27 25 21 18 16 13 11 9 8 8 7 5 4 4 4 4 6 5 3 4 9 17 26 24
34 21 14 22 37 49 50 51 55 56 56 53 47 45 43 39 38 31 29 29 30 30 29 27 23 19 17 14 10 9 12 11 8 7 5 5 4 4 5 6 4 4 10 13 20 21 18
18 9 13 20 36 46 51 54 57 58 60 53 49 46 40 40 37 32 32 32 32 32 30 26 22 19 15 14 13 13 12 10 8 6 5 5 5 5 6 5 4 8 12 15 16 23 20
6 8 11 30 44 49 50 56 62 61 57 54 49 45 39 41 36 35 33 34 32 32 30 28 23 18 15 15 15 15 12 10 8 6 5 5 5 6 6 4 6 11 14 19 26 37 30
10 10 19 35 47 54 58 60 61 61 61 56 51 48 42 38 37 36 37 34 32 32 31 28 23 18 18 16 16 13 12 11 8 6 6 6 6 7 6 4 12 16 18 26 40 61 44
15 17 34 47 53 54 56 60 64 65 64 62 56 52 45 42 41 40 38 38 36 37 33 26 20 17 15 16 15 14 13 10 8 6 6 7 7 7 4 4 19 24 28 39 48 66 59
21 46 55 55 52 50 54 60 65 67 67 68 60 52 48 47 44 41 42 41 40 38 31 25 21 19 17 15 16 14 13 10 8 8 7 8 8 7 4 5 23 38 48 52 58 48 56
19 59 58 57 52 45 48 54 51 46 55 60 56 53 52 50 46 47 44 44 40 35 29 26 23 20 19 18 16 16 14 12 10 8 8 9 9 6 4 9 31 38 42 58 65 67 66
16 51 58 53 42 37 41 47 54 57 59 53 56 54 54 51 49 49 48 46 43 37 32 29 26 22 18 21 20 18 15 12 10 9 10 10 9 5 4 14 31 35 51 67 70 68 67
15 29 61 54 35 37 43 47 52 53 50 55 60 57 57 53 52 52 50 50 47 39 34 32 26 22 24 24 22 19 15 12 10 11 12 11 9 4 4 14 31 41 58 71 64 57 68
13 19 64 59 34 38 41 44 48 49 49 58 62 60 58 59 58 57 54 55 47 40 35 30 25 24 24 24 22 20 15 11 9 9 13 13 9 4 4 8 32 45 56 57 59 57 74
13 18 47 67 48 40 41 40 43 45 52 58 57 55 65 63 62 60 60 54 49 42 35 31 28 28 28 25 22 20 15 12 10 10 13 14 8 4 5 11 32 51 70 93 91 70 65
13 15 22 70 64 44 42 40 43 48 50 56 58 60 63 64 65 64 61 57 51 46 43 34 30 29 30 27 25 21 16 13 12 11 14 15 8 4 4 12 31 49 70 88 82 70 60
14 14 22 29 60 61 46 43 44 49 52 55 62 63 69 70 67 63 60 60 55 53 48 36 30 32 32 28 28 22 17 14 14 14 17 16 10 4 5 9 23 44 74 88 99 89 58
15 15 17 24 23 54 68 54 46 48 49 59 64 70 71 74 65 62 59 62 58 56 48 38 35 35 32 30 29 23 18 16 15 16 19 17 12 6 5 6 17 37 68 95 100 100 100
17 17 22 30 25 41 69 74 60 53 54 64 73 70 71 76 66 62 61 57 59 58 50 42 39 37 35 32 31 25 20 17 16 18 20 18 14 8 4 5 10 31 61 97 98 100 100
21 22 25 36 30 67 73 78 79 74 72 76 77 72 76 76 68 66 64 59 61 56 53 48 42 40 40 38 33 27 22 19 18 19 22 20 15 12 4 5 8 17 43 94 92 100 100
21 24 31 45 47 53 89 84 79 79 83 80 78 78 76 75 72 68 64 61 61 60 56 48 44 42 43 43 37 30 24 21 19 20 23 22 15 8 4 5 9 11 31 78 90 100 98
21 27 36 48 50 41 61 88 84 80 73 74 76 80 75 73 74 70 66 65 63 64 58 48 45 45 46 47 41 32 25 23 22 21 23 22 18 9 4 4 6 9 15 51 86 90 100
34 39 43 51 54 50 33 60 94 84 70 73 76 79 81 83 79 75 71 70 68 68 64 53 50 48 51 51 46 36 28 23 22 22 23 23 20 14 5 3 5 8 12 28 89 90 100
44 47 48 52 56 54 49 37 60 82 70 79 83 80 83 89 88 82 78 75 72 71 69 56 54 52 57 57 52 41 30 25 23 22 23 24 20 16 9 3 4 5 7 16 70 83 100
49 51 52 53 55 57 52 51 30 62 66 84 86 86 91 91 98 92 83 74 72 72 64 60 57 54 60 62 56 45 32 26 24 24 24 26 22 17 12 4 4 5 8 11 47 69 100
49 48 44 49 52 55 52 50 30 33 56 84 85 80 87 90 92 90 80 77 72 68 66 59 57 56 64 68 62 48 33 29 26 27 27 28 23 18 13 5 4 4 8 8 31 73 100
45 46 34 34 41 48 51 47 32 24 41 58 85 83 82 78 82 84 78 77 69 68 68 64 62 58 60 71 67 52 34 31 29 28 29 28 25 19 14 6 4 3 5 6 15 50 88
43 40 26 27 55 40 42 31 26 28 38 52 68 88 86 83 84 81 82 80 80 76 69 68 66 60 61 72 73 54 35 33 31 30 30 29 26 21 15 8 4 2 3 5 13 36 99
86 88 37 37 46 64 30 38 43 35 46 55 92 93 88 84 85 86 88 88 86 81 82 79 65 61 60 69 75 56 38 36 35 34 34 30 26 22 17 10 5 2 2 3 8 32 72
96 100 94 88 87 96 94 95 97 94 83 84 94 94 91 91 92 94 96 90 92 85 88 78 68 66 67 75 80 57 39 39 38 36 36 32 29 24 18 10 4 2 2 2 6 29 59
Wind_Speed
1 1 2 5 7 8 9 8 8 8 7 7 7 8 9 11 14 16 19 21 22 26 29 32 35 40 41 44 45 45 47 49 53 58 62 65 70 77 81 81 80 78 78 78 70 60 54
4 4 6 8 8 10 10 9 8 9 8 8 9 11 11 13 15 16 18 19 23 27 31 34 39 42 44 44 43 46 48 52 58 63 67 72 77 82 83 83 81 82 79 60 44 40 38
7 8 10 9 9 10 10 9 8 9 9 9 10 11 13 16 16 17 17 21 25 28 32 36 39 41 43 42 44 48 52 56 61 66 71 75 81 85 86 85 81 80 53 39 37 41 44
10 11 11 9 10 10 12 11 10 9 9 9 10 12 14 16 17 16 18 21 25 29 34 38 40 41 42 42 47 52 54 59 63 67 73 78 84 87 88 85 79 54 41 34 34 34 34
11 11 10 9 12 12 11 11 10 8 8 8 9 13 15 15 15 15 18 22 26 31 35 36 40 40 42 45 50 52 56 61 66 70 76 81 85 86 86 81 63 44 32 30 26 32 36
10 11 10 10 12 11 10 9 6 6 7 8 10 12 15 14 13 15 20 24 28 31 35 38 40 43 45 47 51 53 59 64 66 72 79 82 84 86 84 76 51 36 29 30 30 34 35
9 10 9 10 11 9 8 5 4 5 7 10 12 12 14 12 14 18 22 27 29 33 37 39 40 44 45 49 52 55 60 63 68 74 81 83 84 85 83 66 40 33 32 35 35 39 37
9 9 8 9 5 5 5 4 5 7 9 11 12 14 13 12 15 20 25 28 32 38 39 38 41 45 47 50 53 56 61 65 70 75 80 82 83 84 78 58 36 34 36 39 39 38 40
8 7 7 5 4 5 5 6 9 11 13 13 13 11 11 14 17 21 26 30 35 36 37 38 43 45 47 53 56 60 62 66 70 74 79 81 83 82 71 51 32 36 38 44 44 34 36
8 8 7 6 6 7 7 9 11 10 10 9 7 8 12 16 20 23 25 32 35 37 40 42 45 48 51 55 58 61 64 66 70 76 80 81 82 75 65 44 36 36 40 43 43 40 33
9 8 9 8 7 8 10 9 10 9 6 6 6 8 12 18 21 24 29 32 35 39 42 44 46 48 51 54 58 59 62 66 72 77 79 81 82 74 56 40 36 38 41 41 43 39 32
11 9 9 9 8 8 10 9 7 6 5 5 8 11 16 20 23 26 30 35 35 42 44 44 46 48 50 54 57 60 61 66 73 77 78 80 81 73 57 36 37 40 42 44 40 39 30
12 11 10 9 8 9 10 8 6 6 5 8 11 14 19 21 24 27 33 34 39 41 43 44 45 47 50 55 58 59 61 65 70 76 77 78 79 72 56 34 35 41 43 40 42 41 36
14 12 11 10 9 9 9 7 7 7 9 13 15 19 20 22 26 31 34 35 36 39 43 45 46 48 50 56 58 59 60 65 71 78 79 77 78 73 57 37 35 41 45 47 47 45 39
16 14 13 12 10 9 9 7 6 9 11 14 16 18 20 24 28 31 32 34 35 39 46 47 47 49 52 56 58 58 60 65 71 77 79 78 72 70 56 37 37 41 44 46 44 42 39
19 16 15 16 14 12 11 12 13 13 14 15 17 18 21 26 29 30 33 34 35 40 46 47 48 49 52 55 57 57 59 65 71 75 77 78 73 71 57 39 36 39 43 46 47 46 39
21 19 18 17 17 16 15 14 15 16 16 16 18 20 23 26 28 30 33 34 37 41 45 48 47 49 52 54 55 57 59 64 71 73 75 77 77 69 59 45 33 37 41 44 46 45 47
22 21 19 18 18 17 17 17 17 17 18 19 20 22 24 25 27 31 33 37 39 41 45 48 47 50 52 54 55 56 58 63 70 73 74 75 78 73 62 49 32 34 39 42 43 44 45
25 22 21 19 19 17 18 18 19 19 21 21 23 24 24 25 26 30 34 36 39 42 46 49 49 50 52 53 55 55 58 63 69 73 74 75 76 78 67 56 39 32 36 41 42 45 41
27 25 24 21 20 18 18 18 19 20 21 23 24 24 24 24 26 29 33 36 40 44 47 49 50 50 51 53 54 55 57 63 68 72 74 75 75 75 71 59 45 33 32 39 42 44 44
31 28 26 24 23 21 22 21 20 21 22 22 23 24 24 24 26 30 33 37 42 45 47 50 52 51 52 53 53 54 56 61 66 71 72 74 74 71 70 60 46 37 31 33 39 42 43
33 30 28 27 25 24 23 22 22 24 24 25 22 22 24 24 26 31 33 38 41 45 47 50 53 52 53 53 53 53 54 60 64 69 71 73 74 73 70 64 50 38 32 29 35 38 38
34 32 32 30 28 27 24 24 25 26 27 25 24 23 26 25 26 30 34 38 42 45 48 49 52 54 52 52 52 52 53 58 63 67 70 72 73 75 73 68 54 42 30 26 28 35 37
37 35 35 34 32 32 27 27 28 30 30 27 27 27 28 30 31 33 35 39 41 45 47 49 51 54 52 52 51 50 52 56 62 67 70 71 73 75 75 72 62 51 34 24 25 30 33
40 39 37 36 36 35 31 29 30 32 32 30 30 28 30 31 33 34 35 37 41 45 46 48 51 53 51 51 50 49 51 55 61 66 69 70 72 75 78 73 66 51 39 23 21 25 28
43 41 40 38 39 38 35 33 34 35 35 33 32 31 30 31 32 34 36 40 44 45 48 46 50 52 51 52 51 49 49 53 60 64 67 69 71 74 78 76 70 56 39 29 20 17 24
48 46 43 41 44 40 39 37 36 39 38 40 40 37 34 33 33 36 38 43 46 48 46 46 49 50 50 52 51 48 47 52 58 62 66 66 68 70 73 74 71 61 48 22 19 14 19
45 44 47 47 46 44 40 39 41 39 43 44 41 38 38 39 37 38 40 45 44 45 43 46 49 49 49 51 51 48 48 52 57 61 64 66 66 70 72 73 72 70 54 30 16 20 18
43 43 46 46 49 37 34 37 44 47 45 45 44 41 39 39 40 41 41 44 41 43 43 46 49 50 49 51 49 45 47 51 56 60 63 64 65 68 71 71 74 69 59 39 14 13 14
Wind_Direction
252 323 315 313 311 311 311 309 300 297 296 290 297 296 300 307 313 320 329 336 342 345 345 345 341 338 335 332 332 332 335 337 337 338 335 331 331 332 329 322 319 319 312 307 303 294 287
260 287 298 310 313 320 324 311 299 289 288 290 298 303 307 316 316 317 327 337 343 344 339 341 339 336 334 334 333 337 338 340 340 338 336 336 336 334 327 323 325 320 314 312 301 298 298
269 293 298 306 311 322 327 331 307 292 285 292 299 306 314 319 317 324 334 342 345 337 337 339 337 336 336 335 339 340 341 341 341 340 339 338 338 333 329 328 327 320 321 314 309 307 302
273 292 298 304 313 312 316 314 314 298 287 294 303 309 317 319 320 326 338 343 339 335 337 337 337 337 337 339 339 342 344 342 340 340 340 341 339 334 331 331 327 327 326 322 317 311 313
276 290 305 304 309 312 313 311 310 295 291 296 306 316 320 319 322 332 338 339 335 336 336 338 336 340 340 342 344 343 344 341 343 343 342 341 339 335 333 332 330 333 334 323 325 310 312
284 295 301 308 313 311 312 314 308 294 300 308 312 319 323 321 328 336 334 335 337 340 338 336 337 340 343 344 345 344 344 343 343 345 344 341 339 335 335 335 335 337 336 326 323 315 314
296 297 297 306 309 310 319 324 303 298 304 308 314 317 317 321 328 333 337 338 340 339 338 340 340 343 346 345 346 345 343 343 346 346 344 341 340 337 338 337 337 334 336 326 324 317 315
303 299 305 311 328 333 330 323 307 304 304 305 307 312 316 322 330 335 339 340 339 337 340 343 343 345 346 347 346 344 346 345 347 346 344 342 341 340 339 339 339 332 331 325 326 317 317
318 315 314 318 334 332 320 309 302 302 300 299 303 314 318 326 332 337 340 336 336 340 343 346 346 345 345 347 347 347 345 347 348 346 346 344 342 342 341 339 340 330 332 328 326 328 323
319 318 316 309 319 319 313 310 313 321 323 316 313 318 324 328 333 336 333 338 339 343 346 346 345 345 348 348 348 347 347 347 348 347 348 345 345 345 341 339 337 331 333 334 335 334 331
316 306 310 310 307 318 319 320 320 323 331 328 331 321 319 323 328 331 335 338 339 342 345 345 345 345 346 350 349 347 348 348 349 348 349 347 347 348 343 337 334 333 337 336 341 340 341
303 300 301 303 301 316 319 318 314 322 328 319 316 312 318 322 327 330 335 336 340 341 345 344 346 348 348 349 349 347 350 351 351 349 349 349 349 350 346 336 335 336 339 337 344 349 351
290 295 292 296 296 311 316 301 299 299 290 304 317 318 320 323 326 330 333 336 340 346 345 346 347 347 348 350 348 347 351 352 352 351 351 350 350 351 349 341 337 336 340 345 353 355 0
281 286 284 288 291 305 310 289 290 284 299 313 319 321 321 321 324 330 333 336 341 347 350 347 347 347 348 350 347 348 351 352 353 353 351 353 351 353 351 340 339 341 345 351 354 354 7
273 277 279 280 276 287 296 289 284 294 299 305 310 317 320 322 326 330 333 338 342 343 345 346 346 347 349 349 346 348 351 352 353 353 352 354 355 354 352 341 340 343 348 350 357 358 8
265 273 277 274 280 274 277 276 281 291 298 305 311 317 323 324 326 329 332 336 336 339 342 344 346 347 349 348 346 348 351 353 353 353 352 354 358 357 353 345 340 344 348 350 349 354 5
260 269 273 278 274 276 274 277 280 285 291 297 304 314 320 320 323 326 330 333 335 340 343 345 345 347 348 347 346 348 351 352 353 352 353 354 357 357 353 350 339 343 349 349 348 352 348
256 266 274 280 279 275 275 277 280 283 289 294 300 311 313 316 319 322 328 333 335 340 342 345 345 347 347 346 347 348 350 352 353 351 353 356 356 359 357 353 344 344 348 347 347 349 351
256 263 270 276 280 280 277 277 279 283 286 289 297 303 306 312 315 319 324 330 335 339 341 343 345 345 346 345 346 348 350 352 353 351 353 356 356 357 360 356 353 343 346 347 347 348 356
253 260 266 274 282 277 279 279 282 283 286 289 293 297 304 308 313 319 324 331 335 337 342 345 345 344 344 345 345 347 350 351 352 350 352 356 357 357 358 353 349 346 343 345 345 347 351
249 256 262 269 278 281 276 284 290 286 286 287 290 294 300 306 313 322 324 328 331 335 341 343 344 342 343 344 345 347 350 350 350 350 352 355 357 359 357 354 347 342 341 345 342 345 348
249 251 257 264 271 277 281 283 289 286 296 288 287 290 295 303 313 320 323 326 327 332 337 341 342 340 342 343 343 347 350 350 349 349 351 355 357 359 358 357 351 345 337 345 340 343 349
246 250 254 260 267 273 279 285 283 286 295 295 287 288 296 304 312 321 324 324 324 327 335 339 340 340 340 342 343 345 348 348 348 349 350 354 355 356 358 359 355 351 342 337 345 343 352
245 248 254 259 263 268 272 279 280 280 289 290 288 292 299 305 313 319 322 322 325 330 334 337 338 339 339 340 342 344 346 347 346 348 350 353 354 355 357 357 359 354 343 339 349 347 348
244 249 253 258 263 265 270 275 279 279 283 288 288 291 297 304 309 315 318 323 327 329 330 335 337 337 337 339 341 343 344 346 346 349 350 352 353 355 356 359 0 356 345 334 344 347 350
244 247 251 254 259 266 268 273 276 276 280 288 288 288 293 299 304 311 315 321 324 322 327 328 333 336 337 338 339 343 344 345 346 347 349 351 354 355 355 356 359 359 349 338 340 343 354
241 241 248 251 254 261 267 271 272 274 275 283 287 286 289 294 301 306 312 317 318 321 324 325 330 335 335 336 338 341 342 344 345 345 348 350 353 353 354 355 358 0 355 340 327 340 344
245 240 244 251 261 257 262 265 272 275 277 285 286 288 289 293 297 303 310 316 318 322 324 327 331 334 334 335 337 339 341 343 343 343 346 349 352 352 353 354 356 0 359 349 312 320 345
241 247 251 255 263 257 265 272 272 274 281 283 283 283 290 293 297 301 307 314 315 324 323 330 334 334 333 334 335 336 338 341 341 342 345 350 351 352 353 354 355 358 360 356 311 307 327